| time (UTC) | temp F | wind direction | speed knots | gust knots | rain 1hr in | rain 24hr in | rain mn in | humidity % | barometer mb |
| 20260506050521 | 49 | 0.0 | 0.0 | 0.00 | 0.08 | 0.03 | 99 | 1002.3 | |
| 20260506044521 | 49 | 0.0 | 0.0 | 0.00 | 0.08 | 0.03 | 99 | 1002.1 | |
| 20260506043516 | 49 | 0.0 | 0.0 | 0.00 | 0.08 | 0.03 | 99 | 1002.2 | |
| 20260506042522 | 49 | 0.0 | 0.0 | 0.00 | 0.08 | 0.03 | 99 | 1002.2 | |
| 20260506041518 | 49 | 0.0 | 0.0 | 0.00 | 0.08 | 0.03 | 99 | 1002.2 | |
| 20260506040523 | 49 | 0.0 | 0.0 | 0.00 | 0.08 | 0.03 | 99 | 1002.2 | |
| 20260506035516 | 49 | 0.0 | 0.0 | 0.00 | 0.08 | 0.03 | 99 | 1002.3 | |
| 20260506034521 | 49 | 0.0 | 0.0 | 0.00 | 0.11 | 0.03 | 99 | 1002.3 | |
| 20260506033525 | 49 | 0.0 | 0.0 | 0.00 | 0.11 | 0.03 | 99 | 1002.3 | |
| 20260506032520 | 49 | 0.0 | 0.0 | 0.00 | 0.11 | 0.03 | 99 | 1002.4 | |
| 20260506031523 | 49 | 0.0 | 0.0 | 0.00 | 0.11 | 0.03 | 99 | 1002.6 | |
| 20260506030520 | 49 | 0.0 | 0.0 | 0.03 | 0.11 | 0.03 | 99 | 1002.6 | |
| 20260506025523 | 49 | 0.0 | 0.0 | 0.03 | 0.11 | 0.03 | 99 | 1002.6 | |
| 20260506024518 | 49 | 0.0 | 0.0 | 0.03 | 0.11 | 0.03 | 99 | 1002.6 | |
| 20260506023524 | 49 | 0.0 | 0.0 | 0.03 | 0.11 | 0.03 | 99 | 1002.8 | |
| 20260506022519 | 49 | 0.0 | 0.0 | 0.03 | 0.14 | 0.03 | 99 | 1002.8 | |
| 20260506021525 | 49 | 0.0 | 0.0 | 0.03 | 0.14 | 0.03 | 99 | 1002.8 | |
| 20260506020520 | 50 | 0.0 | 0.0 | 0.00 | 0.11 | 0.00 | 99 | 1002.8 | |
| 20260506015523 | 50 | 0.0 | 0.0 | 0.00 | 0.14 | 0.00 | 99 | 1003.0 | |
| 20260506014520 | 50 | 0.0 | 0.0 | 0.00 | 0.14 | 0.00 | 99 | 1003.0 | |
| 20260506013515 | 50 | 0.0 | 0.0 | 0.00 | 0.17 | 0.00 | 99 | 1003.3 | |
| 20260506012521 | 50 | 0.0 | 0.0 | 0.00 | 0.17 | 0.00 | 99 | 1003.2 | |
| 20260506011515 | 50 | 0.0 | 0.0 | 0.00 | 0.22 | 0.00 | 99 | 1003.0 | |
| 20260506010522 | 50 | 0.0 | 0.0 | 0.00 | 0.22 | 0.00 | 99 | 1003.1 | |
| 20260506005524 | 50 | 0.0 | 0.0 | 0.00 | 0.25 | 0.00 | 99 | 1003.5 | |
| 20260506004520 | 50 | 0.0 | 0.0 | 0.00 | 0.25 | 0.00 | 99 | 1003.5 | |
| 20260506003524 | 50 | 0.0 | 0.0 | 0.00 | 0.28 | 0.00 | 99 | 1003.5 | |
| 20260506002519 | 50 | 0.0 | 0.0 | 0.00 | 0.28 | 0.00 | 99 | 1003.5 | |
| 20260506001523 | 50 | 0.0 | 0.0 | 0.00 | 0.28 | 0.00 | 99 | 1003.7 | |
| 20260506000519 | 50 | 0.0 | 0.0 | 0.00 | 0.28 | 0.00 | 99 | 1003.7 | |
| 20260505235522 | 50 | 0.0 | 0.0 | 0.00 | 0.28 | 0.00 | 99 | 1003.8 | |
| 20260505234516 | 50 | 0.0 | 0.0 | 0.00 | 0.28 | 0.00 | 99 | 1003.8 | |
| 20260505233521 | 51 | 0.0 | 0.0 | 0.00 | 0.28 | 0.00 | 99 | 1003.9 | |
| 20260505232525 | 51 | 0.0 | 0.0 | 0.00 | 0.28 | 0.00 | 99 | 1003.9 | |
| 20260505231521 | 51 | 0.0 | 0.0 | 0.00 | 0.28 | 0.00 | 99 | 1003.9 | |
| 20260505230516 | 51 | 0.0 | 0.0 | 0.00 | 0.28 | 0.00 | 99 | 1003.9 | |
| 20260505225521 | 51 | 0.0 | 0.0 | 0.00 | 0.28 | 0.00 | 99 | 1004.1 | |
| 20260505224518 | 51 | 0.0 | 0.0 | 0.00 | 0.28 | 0.00 | 99 | 1004.1 | |
| 20260505223523 | 51 | 0.0 | 0.0 | 0.00 | 0.28 | 0.00 | 99 | 1004.1 | |
| 20260505222518 | 51 | 0.0 | 0.0 | 0.00 | 0.28 | 0.00 | 99 | 1004.2 | |
| 20260505221521 | 51 | 0.0 | 0.0 | 0.00 | 0.28 | 0.00 | 99 | 1004.6 | |
| 20260505220515 | 51 | 0.0 | 0.0 | 0.00 | 0.28 | 0.00 | 99 | 1004.6 | |
| 20260505215519 | 51 | 0.0 | 0.0 | 0.00 | 0.31 | 0.31 | 99 | 1004.6 | |
| 20260505214524 | 51 | 0.0 | 0.0 | 0.00 | 0.31 | 0.31 | 99 | 1004.6 | |
| 20260505213520 | 51 | 0.0 | 0.0 | 0.00 | 0.31 | 0.31 | 99 | 1004.5 | |
| 20260505212524 | 52 | 0.0 | 0.0 | 0.00 | 0.31 | 0.31 | 99 | 1004.5 | |
| 20260505211519 | 52 | 0.0 | 0.0 | 0.00 | 0.31 | 0.31 | 99 | 1004.5 | |
| 20260505210523 | 52 | 0.0 | 0.0 | 0.00 | 0.31 | 0.31 | 99 | 1004.5 | |
| 20260505205519 | 52 | 0.0 | 0.0 | 0.00 | 0.31 | 0.31 | 99 | 1004.9 | |
| 20260505204523 | 52 | 0.0 | 0.0 | 0.00 | 0.31 | 0.31 | 99 | 1004.9 | |
| 20260505203516 | 52 | 0.0 | 0.0 | 0.00 | 0.31 | 0.31 | 99 | 1004.8 | |
| 20260505202521 | 52 | 0.0 | 0.0 | 0.00 | 0.31 | 0.31 | 99 | 1004.8 | |
| 20260505201517 | 52 | 0.0 | 0.0 | 0.00 | 0.31 | 0.31 | 99 | 1004.8 | |
| 20260505200523 | 52 | 0.0 | 0.0 | 0.00 | 0.31 | 0.31 | 99 | 1004.8 | |
| 20260505195519 | 52 | 0.0 | 0.0 | 0.00 | 0.33 | 0.31 | 99 | 1004.7 | |
| 20260505194523 | 52 | 0.0 | 0.0 | 0.00 | 0.33 | 0.31 | 99 | 1004.6 | |
| 20260505193519 | 52 | 0.0 | 0.0 | 0.00 | 0.33 | 0.31 | 99 | 1004.5 | |
| 20260505192523 | 53 | 0.0 | 0.0 | 0.00 | 0.39 | 0.31 | 99 | 1004.5 | |
| 20260505191516 | 53 | 0.0 | 0.0 | 0.00 | 0.42 | 0.31 | 99 | 1004.6 | |
| 20260505190522 | 53 | 0.0 | 0.0 | 0.00 | 0.44 | 0.31 | 99 | 1004.6 | |
| 20260505185524 | 53 | 0.0 | 0.0 | 0.00 | 0.47 | 0.31 | 99 | 1004.5 | |
| 20260505184521 | 53 | 0.0 | 0.0 | 0.00 | 0.50 | 0.31 | 99 | 1004.5 | |
| 20260505183525 | 53 | 0.0 | 0.0 | 0.00 | 0.53 | 0.31 | 99 | 1004.5 | |
| 20260505182520 | 53 | 0.0 | 0.0 | 0.00 | 0.53 | 0.31 | 99 | 1004.5 | |
| 20260505181524 | 53 | 0.0 | 0.0 | 0.00 | 0.53 | 0.31 | 99 | 1004.5 | |
| 20260505180520 | 53 | 0.0 | 0.0 | 0.00 | 0.56 | 0.31 | 99 | 1004.5 | |
| 20260505175523 | 53 | 0.0 | 0.0 | 0.00 | 0.56 | 0.31 | 99 | 1004.5 | |
| 20260505174519 | 53 | 0.0 | 0.0 | 0.00 | 0.56 | 0.31 | 99 | 1004.5 | |
| 20260505173525 | 54 | 0.0 | 0.0 | 0.00 | 0.56 | 0.31 | 99 | 1004.6 | |
| 20260505172519 | 54 | 0.0 | 0.0 | 0.00 | 0.56 | 0.31 | 99 | 1004.7 | |
| 20260505171523 | 54 | 0.0 | 0.0 | 0.00 | 0.56 | 0.31 | 99 | 1005.0 | |
| 20260505170518 | 54 | 0.0 | 0.0 | 0.00 | 0.58 | 0.31 | 99 | 1005.0 | |
| 20260505165522 | 54 | 0.0 | 0.0 | 0.00 | 0.61 | 0.31 | 99 | 1005.0 | |
| 20260505164517 | 54 | 0.0 | 0.0 | 0.00 | 0.67 | 0.31 | 99 | 1005.1 | |
| 20260505163523 | 54 | 0.0 | 0.0 | 0.00 | 0.69 | 0.31 | 99 | 1005.4 | |
| 20260505162526 | 54 | 0.0 | 0.0 | 0.00 | 0.69 | 0.31 | 99 | 1005.4 | |
| 20260505161522 | 54 | 0.0 | 0.0 | 0.00 | 0.69 | 0.31 | 99 | 1005.2 | |
| 20260505160518 | 54 | 0.0 | 0.0 | 0.00 | 0.69 | 0.31 | 99 | 1005.3 | |
| 20260505152517 | 55 | 0.0 | 0.0 | 0.00 | 0.69 | 0.31 | 99 | 1005.6 | |
| 20260505151522 | 55 | 0.0 | 0.0 | 0.00 | 0.69 | 0.31 | 99 | 1005.7 | |
| 20260505150518 | 55 | 0.0 | 0.0 | 0.00 | 0.69 | 0.31 | 99 | 1005.7 | |
| 20260505140524 | 55 | 0.0 | 0.0 | 0.00 | 0.69 | 0.31 | 99 | 1005.7 | |
| 20260505124521 | 54 | 0.0 | 0.0 | 0.00 | 0.69 | 0.31 | 99 | 1006.2 | |
| 20260505123524 | 54 | 0.0 | 0.0 | 0.00 | 0.69 | 0.31 | 99 | 1006.2 | |
| 20260505122518 | 54 | 0.0 | 0.0 | 0.00 | 0.69 | 0.31 | 99 | 1006.2 | |
| 20260505121524 | 53 | 0.0 | 0.0 | 0.00 | 0.69 | 0.31 | 99 | 1006.3 | |
| 20260505120519 | 54 | 0.0 | 0.0 | 0.00 | 0.69 | 0.31 | 99 | 1006.3 | |
| 20260505115523 | 53 | 0.0 | 0.0 | 0.00 | 0.69 | 0.31 | 99 | 1006.5 | |
| 20260505114520 | 53 | 0.0 | 0.0 | 0.00 | 0.69 | 0.31 | 99 | 1006.5 | |
| 20260505113523 | 53 | 0.0 | 0.0 | 0.00 | 0.69 | 0.31 | 99 | 1006.5 | |
| 20260505112517 | 53 | 0.0 | 0.0 | 0.03 | 0.69 | 0.31 | 99 | 1006.5 | |
| 20260505111522 | 53 | 0.0 | 0.0 | 0.03 | 0.69 | 0.31 | 99 | 1006.5 | |
| 20260505110516 | 53 | 0.0 | 0.0 | 0.03 | 0.69 | 0.31 | 99 | 1006.4 | |
| 20260505101521 | 52 | 0.0 | 0.0 | 0.03 | 0.67 | 0.28 | 99 | 1006.5 | |
| 20260505100516 | 52 | 0.0 | 0.0 | 0.03 | 0.67 | 0.28 | 99 | 1006.5 | |
| 20260505095521 | 52 | 0.0 | 0.0 | 0.03 | 0.67 | 0.28 | 99 | 1006.5 | |
| 20260505094516 | 52 | 0.0 | 0.0 | 0.00 | 0.64 | 0.25 | 99 | 1006.5 | |
| 20260505093522 | 52 | 0.0 | 0.0 | 0.00 | 0.64 | 0.25 | 99 | 1006.5 | |
| 20260505092518 | 52 | 0.0 | 0.0 | 0.00 | 0.64 | 0.25 | 99 | 1006.5 | |
| 20260505091523 | 53 | 0.0 | 0.0 | 0.00 | 0.64 | 0.25 | 99 | 1006.5 | |
| 20260505090518 | 53 | 0.0 | 0.0 | 0.00 | 0.64 | 0.25 | 99 | 1006.5 | |
| 20260505085523 | 53 | 0.0 | 0.0 | 0.00 | 0.64 | 0.25 | 99 | 1006.5 | |
| 20260505084518 | 53 | 0.0 | 0.0 | 0.00 | 0.64 | 0.25 | 99 | ||
| 20260505083524 | 53 | 0.0 | 0.0 | 0.00 | 0.64 | 0.25 | 99 | ||
| 20260505082519 | 53 | 0.0 | 0.0 | 0.00 | 0.64 | 0.25 | 99 | ||
| 20260505081523 | 53 | 0.0 | 0.0 | 0.00 | 0.64 | 0.25 | 99 | ||
| 20260505080518 | 53 | 0.0 | 0.0 | 0.00 | 0.64 | 0.25 | 99 | ||
| 20260505075522 | 53 | 0.0 | 0.0 | 0.00 | 0.64 | 0.25 | 99 | ||
| 20260505074526 | 53 | 0.0 | 0.0 | 0.00 | 0.64 | 0.25 | 99 | ||
| 20260505073522 | 53 | 0.0 | 0.0 | 0.00 | 0.64 | 0.25 | 99 | ||
| 20260505072518 | 53 | 0.0 | 0.0 | 0.00 | 0.64 | 0.25 | 99 | ||
| 20260505071523 | 53 | 0.0 | 0.0 | 0.00 | 0.64 | 0.25 | 99 | ||
| 20260505070519 | 53 | 0.0 | 0.0 | 0.00 | 0.64 | 0.25 | 99 | ||
| 20260505065521 | 53 | 0.0 | 0.0 | 0.00 | 0.64 | 0.25 | 99 | ||
| 20260505064526 | 53 | 0.0 | 0.0 | 0.00 | 0.64 | 0.25 | 99 | ||
| 20260505063522 | 54 | 0.0 | 0.0 | 0.00 | 0.64 | 0.25 | 99 | ||
| 20260505062517 | 54 | 0.0 | 0.0 | 0.00 | 0.64 | 0.25 | 99 | ||
| 20260505061523 | 54 | 0.0 | 0.0 | 0.00 | 0.64 | 0.25 | 99 | ||
| 20260505060518 | 54 | 0.0 | 0.0 | 0.00 | 0.64 | 0.25 | 99 | ||
| 20260505055522 | 54 | 0.0 | 0.0 | 0.00 | 0.64 | 0.25 | 99 |